Regional Weather Roundup
Issued by NWS

Home | Current Version | Previous Version | Graphics & Text | Print | Product List | Glossary On
Versions: 1 2 3 4 5 6 7 8 9 10 11 12 13 14 15 16 17 18 19 20 21 22 23 24 25 26 27 28 29 30 31 32 33 34 35 36 37 38 39 40 41 42 43 44 45 46 47 48 49 50
000
ASUS43 KMPX 051201
RWRMN
WEATHER ROUNDUP FOR MINNESOTA
NATIONAL WEATHER SERVICE TWIN CITIES/CHANHASSEN MN
700 AM CDT SUN JUL 05 2015


NOTE: "FAIR" INDICATES FEW OR NO CLOUDS BELOW 12,000 FEET WITH NO
SIGNIFICANT WEATHER AND/OR OBSTRUCTIONS TO VISIBILITY. N/A MEANS
CURRENT SKY AND/OR WEATHER CONDITIONS ARE NOT AVAILABLE.

MNZ060>063-068>070-051300-
   Twin Cities Metro

CITY           SKY/WX    TMP DP  RH WIND       PRES   REMARKS
TWIN CITIES    CLOUDY    68  59  73 S7        29.95S
6HR MIN TEMP:  66; 6HR MAX TEMP:  73;

ST PAUL        MOSUNNY   66  61  84 SE9       29.95S
CRYSTAL        MOSUNNY   69  60  73 S8        29.92S
BLAINE         SUNNY     68  63  83 S6        29.93F
LAKEVILLE      SUNNY     61  59  94 CALM      29.96R
EDEN PRAIRIE   MOSUNNY   67  60  78 S8        29.94R
6HR MIN TEMP:  65; 6HR MAX TEMP:  69;

SOUTH ST PAUL  MOSUNNY   66  59  78 S5        29.95S
LAKE ELMO      FAIR      64  61  88 S7        29.97F
$$
MNZ001>005-007-008-013>017-022>024-027-028-051300-
   Northwest Minnesota

CITY           SKY/WX    TMP DP  RH WIND       PRES   REMARKS
BEMIDJI        CLOUDY    64  62  92 S7        29.85R
HALLOCK        PTSUNNY   66  64  94 N7        29.78R
ROSEAU         MOSUNNY   64  59  82 CALM      29.78R
WARROAD        PTSUNNY   64  61  88 SW5       29.79R
THIEF RVR FALL PTSUNNY   66  64  94 S14G22    29.78S
CROOKSTON      CLOUDY    66  66 100 S16       29.78F
FOSSTON        CLOUDY    63  61  94 W6        29.86R
DETROIT LAKES  MOSUNNY   70  63  78 SE7       29.86S
MOORHEAD       MOSUNNY   70  64  83 E7        29.81R
PARK RAPIDS    MOSUNNY   68  63  84 SE9       29.87S HAZE
MAHNOMEN       FAIR      67  61  79 SE8       29.84R
$$
MNZ006-009>011-018-025>026-051300-
   North Central Minnesota

CITY           SKY/WX    TMP DP  RH WIND       PRES   REMARKS
BAUDETTE       CLOUDY    65  63  93 S5        29.77S
INTL FALLS     CLOUDY    64  62  93 CALM      29.79S FOG
6HR MIN TEMP:  64; 6HR MAX TEMP:  66; 6HR PCP:  0.05;

WASKISH        CLOUDY    64  63  94 CALM      29.80R
BIG FORK       CLOUDY    68  64  88 SW7       29.84R FOG
LONGVILLE      CLOUDY    70  64  83 S5        29.89R HAZE
GRAND RAPIDS   CLOUDY    64  63  94 S8        29.88F
CRANE LAKE     CLOUDY    64  63  94 S7        29.81F
ORR            CLOUDY    64  61  88 S12G17    29.80F
COOK           CLOUDY    66  63  88 S8        29.85F
WALKER         FAIR      68  64  86 S5        29.86R
$$
MNZ012-019>021-037-051300-
   Northeast Minnesota

CITY           SKY/WX    TMP DP  RH WIND       PRES   REMARKS
DULUTH         PTSUNNY   58  54  86 S3        29.92F FOG
6HR MIN TEMP:  56; 6HR MAX TEMP:  59;

ELY            CLOUDY    64  61  88 S8        29.88F
HIBBING        CLOUDY    58  56  93 SE3       29.89F FOG
DULUTH HARBOR  PTSUNNY   61  57  88 CALM      29.93F
TWO HARBORS    PTSUNNY   57  52  82 NW1       29.91S
SILVER BAY     PTSUNNY   55  54  94 CALM      29.90F
GRAND MARAIS     N/A     52  49  89 CALM      29.90F
G MARAIS ARPRT MOSUNNY   59  54  82 SW6       29.93F
$$
MNZ029>031-032-039>041-046>048-054>057-064-051300-
   West Central Minnesota

CITY           SKY/WX    TMP DP  RH WIND       PRES   REMARKS
FERGUS FALLS   MOSUNNY   70  63  78 S12       29.82R
WHEATON        PTSUNNY   64  63  94 E10       29.81R
MORRIS         CLOUDY    66  63  88 SE13G18   29.82R
ALEXANDRIA     PTSUNNY   66  62  87 SE10      29.87F
ELBOW LAKE     FAIR      68  63  85 SE12      29.83S
WADENA         MOSUNNY   64  63  94 NE5       29.87R FOG
GLENWOOD       PTSUNNY   66  63  88 SE7       29.88R
APPLETON       CLOUDY    70  63  78 SE10      29.81F
BENSON         CLOUDY    66  61  82 S9        29.85F
ORTONVILLE     CLOUDY    66  63  88 SE10      29.79S
MADISON        CLOUDY    72  63  73 S9        29.81F
WILLMAR        FAIR      66  63  88 SE9       29.90S
$$
MNZ033>034-036-042>043-049>051-058-059-051300-
   Central Minnesota

CITY           SKY/WX    TMP DP  RH WIND       PRES   REMARKS
ST CLOUD       PTSUNNY   63  61  93 S6        29.91S
6HR MIN TEMP:  61; 6HR MAX TEMP:  68;

SAUK CENTRE    PTSUNNY   64  61  91 SE7       29.89S
PAYNESVILLE    PTSUNNY   64  60  88 E8        29.90F
AITKIN         CLOUDY    68  63  83 S5        29.90R
PINE RIVER     CLOUDY    64  63  94 CALM      29.94R FOG
BRAINERD       CLOUDY    66  61  84 S7        29.91R HAZE
STAPLES        PTSUNNY   64  61  88 SE3       29.88R
LONG PRAIRIE   FAIR      63  61  94 SE7       29.90R
LITTLE FALLS   PTSUNNY   63  59  88 SE5       29.90S
LITCHFIELD     PTSUNNY   68  63  83 SE7       29.91F
BUFFALO        PTSUNNY   66  59  77 S6        29.94R
MAPLE LAKE     PTSUNNY   66  62  88 S6        29.93S
$$
MNZ037-044-045-052-053-051300-
   East Central Minnesota

CITY           SKY/WX    TMP DP  RH WIND       PRES   REMARKS
PRINCETON      PTSUNNY   64  61  88 CALM      29.93R
MORA           PTSUNNY   63  59  88 CALM      29.93F
CAMBRIDGE      PTSUNNY   66  57  72 CALM      29.91S
RUSH CITY      MOSUNNY   64  60  90 S6        29.93F
MOOSE LAKE       N/A     57  55  94 CALM      29.91S FOG
HINCKLEY       FAIR      64  63  94 S3        29.93S
CLOQUET        PTSUNNY   55  54  94 CALM      29.93F FOG
MCGREGOR       CLOUDY    64  61  88 S7        29.92R
$$
MNZ071>073-080-081-089-090-097-098-051300-
   Southwest Minnesota

CITY           SKY/WX    TMP DP  RH WIND       PRES   REMARKS
MONTEVIDEO     CLOUDY    66  63  88 S9        29.86F
GRANITE FALLS  CLOUDY    67  62  84 S9        29.89S
CANBY          LGT RAIN  71  64  79 S25G37    29.78F
MARSHALL       CLOUDY    70  61  73 SW16      29.88F
REDWOOD FALLS  CLOUDY    66  61  84 S10       29.91R
OLIVIA         CLOUDY    63  57  82 SE9       29.90S
PIPESTONE      LGT RAIN  66  63  88 CALM      29.95S
WINDOM         CLOUDY    68  61  77 S10       29.93S
WORTHINGTON    CLOUDY    66  59  77 S9        29.94R
JACKSON        CLOUDY    66  61  82 S8        29.95S
TRACY          CLOUDY    71  63  76 SW18G24   29.92R
SLAYTON        CLOUDY    68  62  83 SW8       29.96R
$$
MNZ065>067-074>077-082>085-091>093-051300-
   South Central Minnesota

CITY           SKY/WX    TMP DP  RH WIND       PRES   REMARKS
MANKATO        MOSUNNY   64  57  77 S7        29.96R
NEW ULM        PTSUNNY   63  61  94 SE6       29.93R
ST JAMES       PTSUNNY   66  63  88 S7        29.95R
FAIRMONT       PTSUNNY   63  55  77 S7        29.95R
GLENCOE        MOSUNNY   66  62  87 SE6       29.93S
FARIBAULT      SUNNY     66  61  82 S5        29.98R
OWATONNA       SUNNY     64  57  77 S9        29.97R
WASECA         SUNNY     63  59  88 S6        29.98R
ALBERT LEA     SUNNY     66  59  77 S6        29.98R
$$
MNZ078>079-086>088-094>096-051300-
   Southeast Minnesota

CITY           SKY/WX    TMP DP  RH WIND       PRES   REMARKS
ROCHESTER      SUNNY     61  59  93 SE9       30.00F
6HR MIN TEMP:  59; 6HR MAX TEMP:  62;

RED WING       SUNNY     68  61  77 CALM      29.96S
DODGE CENTER   SUNNY     64  61  88 S8        29.99S
WINONA         SUNNY     70  61  73 CALM      30.00R
AUSTIN         SUNNY     63  59  88 S5        29.98F
PRESTON        SUNNY     61  57  88 S5        30.02S
$$
ABBREVIATIONS USED IN REMARKS
   TC - TEMPERATURES IN CELSIUS
  WCI - WIND CHILL INDEX
   HX - HEAT INDEX
  VSB - VISIBILITY
$$



USA.gov is the U.S. government's official web portal to all federal, state and local government web resources and services.